Simultaneous Nadir Overpasses (SNOs) Predictions

Prediction of SNOs between NOAA-19 and TERRA Satellite Orbit:

Table of predicted SNOs for the next 14.0 days since TLE Epoch: 5/11/2024
Index Date (NOAA-19) Time (NOAA-19) Lat,Lon (NOAA-19) SZA (NOAA-19 ) Date (TERRA) Time (TERRA) Lat,Lon (TERRA) SZA (TERRA ) Distance(km) Time Diff (sec)
1 05/11/2024 06:52:15 79.36, 92.55 61.75 05/11/2024 06:52:55 79.36, 92.57 61.76 0.60 40
2 05/11/2024 07:43:13 -79.54, -98.55 118.00 05/11/2024 07:42:12 -79.54, -98.64 118.02 2.06 61
3 05/13/2024 10:42:19 -79.37,-144.77 118.77 05/13/2024 10:42:09 -79.38,-144.67 118.76 2.24 10
4 05/15/2024 13:41:21 -79.29, 169.82 119.39 05/15/2024 13:42:02 -79.30, 169.83 119.37 0.53 41
5 05/15/2024 14:32:10 79.43, -21.69 60.81 05/15/2024 14:31:19 79.44, -21.60 60.81 2.32 51
6 05/17/2024 17:31:12 79.31, -67.46 60.16 05/17/2024 17:31:11 79.31, -67.42 60.16 1.00 1
7 05/19/2024 20:30:13 79.18,-113.21 59.52 05/19/2024 20:31:01 79.18,-113.22 59.53 0.59 48
8 05/19/2024 21:21:12 -79.37, 55.60 120.22 05/19/2024 21:20:18 -79.37, 55.65 120.23 1.17 54
9 05/22/2024 00:20:12 -79.24, 9.85 120.83 05/22/2024 00:20:06 -79.24, 9.86 120.83 0.39 6
10 05/24/2024 03:19:10 -79.14, -35.64 121.37 05/24/2024 03:19:51 -79.14, -35.68 121.36 0.71 41



Historial Predications of SNOs between NOAA-19 and TERRA
